| time (UTC) | temp F | wind direction | speed MPH | gust MPH | rain 1hr in | rain 24hr in | rain mn in | humidity % | barometer mb |
| 20260505172448 | 55 | 162 | 10.0 | 16.0 | 0.00 | 0.00 | 0.00 | 36 | 1001.1 |
| 20260505171947 | 0 | 0.0 | 0.0 | 0.00 | 0.00 | 0.00 | 1001.1 | ||
| 20260505171445 | 0 | 166 | 9.0 | 9.0 | 0.00 | 0.00 | 0.00 | 1001.2 | |
| 20260505170944 | 54 | 166 | 9.0 | 18.0 | 0.00 | 0.00 | 0.00 | 41 | 1001.1 |
| 20260505170444 | 54 | 152 | 9.0 | 18.0 | 0.00 | 0.00 | 0.00 | 41 | 1001.2 |
| 20260505165944 | 54 | 172 | 13.0 | 18.0 | 0.00 | 0.00 | 0.00 | 42 | 1001.1 |
| 20260505165443 | 53 | 131 | 6.0 | 12.0 | 0.00 | 0.00 | 0.00 | 43 | 1001.3 |
| 20260505164943 | 53 | 165 | 7.0 | 14.0 | 0.00 | 0.00 | 0.00 | 40 | 1001.4 |
| 20260505164442 | 54 | 166 | 9.0 | 15.0 | 0.00 | 0.00 | 0.00 | 38 | 1001.3 |
| 20260505164427 | 54 | 157 | 9.0 | 15.0 | 0.00 | 0.00 | 0.00 | 39 | 1001.3 |
| 20260505163442 | 55 | 165 | 10.0 | 15.0 | 0.00 | 0.00 | 0.00 | 39 | 1001.3 |
| 20260505162943 | 55 | 155 | 8.0 | 15.0 | 0.00 | 0.00 | 0.00 | 40 | 1001.3 |
| 20260505162442 | 54 | 206 | 6.0 | 12.0 | 0.00 | 0.00 | 0.00 | 41 | 1001.3 |
| 20260505162430 | 54 | 165 | 6.0 | 16.0 | 0.00 | 0.00 | 0.00 | 38 | 1001.3 |
| 20260505161924 | 54 | 189 | 10.0 | 16.0 | 0.00 | 0.00 | 0.00 | 38 | 1001.2 |
| 20260505160942 | 55 | 161 | 9.0 | 14.0 | 0.00 | 0.00 | 0.00 | 37 | 1001.2 |
| 20260505160442 | 54 | 173 | 6.0 | 12.0 | 0.00 | 0.00 | 0.00 | 38 | 1001.1 |
| 20260505160206 | 54 | 159 | 6.0 | 12.0 | 0.00 | 0.00 | 0.00 | 39 | 1001.1 |
| 20260505152939 | 54 | 165 | 8.0 | 12.0 | 0.00 | 0.00 | 0.00 | 40 | 1001.0 |
| 20260505152439 | 54 | 179 | 7.0 | 11.0 | 0.00 | 0.00 | 0.00 | 41 | 1001.0 |
| 20260505151938 | 53 | 164 | 4.0 | 7.0 | 0.00 | 0.00 | 0.00 | 42 | 1001.0 |
| 20260505151436 | 53 | 149 | 4.0 | 7.0 | 0.00 | 0.00 | 0.00 | 41 | 1001.1 |
| 20260505150937 | 53 | 175 | 6.0 | 10.0 | 0.00 | 0.00 | 0.00 | 43 | 1001.0 |
| 20260505150434 | 52 | 204 | 6.0 | 10.0 | 0.00 | 0.00 | 0.00 | 43 | 1001.1 |
| 20260505150156 | 0 | 0.0 | 0.0 | 0.00 | 0.00 | 0.00 | 1001.0 | ||
| 20260505140431 | 51 | 209 | 7.0 | 11.0 | 0.00 | 0.00 | 0.00 | 49 | 1001.1 |
| 20260505124922 | 45 | 168 | 0.0 | 6.0 | 0.00 | 0.00 | 0.00 | 60 | 1001.0 |
| 20260505124422 | 43 | 154 | 2.0 | 4.0 | 0.00 | 0.00 | 0.00 | 63 | 1000.9 |
| 20260505124147 | 43 | 154 | 2.0 | 4.0 | 0.00 | 0.00 | 0.00 | 63 | 1000.9 |
| 20260505123421 | 43 | 157 | 2.0 | 4.0 | 0.00 | 0.00 | 0.00 | 65 | 1000.8 |
| 20260505122922 | 42 | 155 | 2.0 | 4.0 | 0.00 | 0.00 | 0.00 | 66 | 1000.7 |
| 20260505122421 | 42 | 155 | 2.0 | 4.0 | 0.00 | 0.00 | 0.00 | 76 | 1000.6 |
| 20260505122144 | 40 | 169 | 0.0 | 2.0 | 0.00 | 0.00 | 0.00 | 76 | 1000.4 |
| 20260505121642 | 40 | 169 | 0.0 | 0.0 | 0.00 | 0.00 | 0.00 | 78 | 1000.4 |
| 20260505120916 | 40 | 169 | 0.0 | 0.0 | 0.00 | 0.00 | 0.00 | 78 | 1000.4 |
| 20260505120416 | 40 | 169 | 0.0 | 0.0 | 0.00 | 0.00 | 0.00 | 78 | 1000.3 |
| 20260505115916 | 39 | 169 | 0.0 | 0.0 | 0.00 | 0.00 | 0.00 | 78 | 1000.2 |
| 20260505115642 | 39 | 169 | 0.0 | 0.0 | 0.00 | 0.00 | 0.00 | 78 | 1000.1 |
| 20260505115140 | 39 | 169 | 0.0 | 0.0 | 0.00 | 0.00 | 0.00 | 78 | 1000.0 |
| 20260505114415 | 39 | 169 | 0.0 | 0.0 | 0.00 | 0.00 | 0.00 | 77 | 999.7 |
| 20260505113915 | 39 | 169 | 0.0 | 0.0 | 0.00 | 0.00 | 0.00 | 77 | 999.6 |
| 20260505113415 | 39 | 169 | 0.0 | 0.0 | 0.00 | 0.00 | 0.00 | 77 | 999.7 |
| 20260505112912 | 39 | 169 | 0.0 | 0.0 | 0.00 | 0.00 | 0.00 | 77 | 999.5 |
| 20260505112412 | 39 | 169 | 0.0 | 0.0 | 0.00 | 0.00 | 0.00 | 77 | 999.3 |
| 20260505112137 | 39 | 169 | 0.0 | 0.0 | 0.00 | 0.00 | 0.00 | 77 | 999.1 |
| 20260505111412 | 39 | 169 | 0.0 | 0.0 | 0.00 | 0.00 | 0.00 | 77 | 998.9 |
| 20260505110912 | 39 | 169 | 0.0 | 0.0 | 0.00 | 0.00 | 0.00 | 76 | 998.8 |
| 20260505110410 | 39 | 169 | 0.0 | 0.0 | 0.00 | 0.00 | 0.00 | 76 | 998.9 |
| 20260505101903 | 41 | 169 | 0.0 | 0.0 | 0.00 | 0.00 | 0.00 | 69 | 999.1 |
| 20260505101403 | 41 | 169 | 0.0 | 0.0 | 0.00 | 0.00 | 0.00 | 67 | 999.1 |
| 20260505100902 | 41 | 169 | 0.0 | 0.0 | 0.00 | 0.00 | 0.00 | 67 | 998.9 |
| 20260505100402 | 42 | 169 | 0.0 | 0.0 | 0.00 | 0.00 | 0.00 | 66 | 999.0 |
| 20260505095902 | 42 | 169 | 0.0 | 0.0 | 0.00 | 0.00 | 0.00 | 66 | 998.8 |
| 20260505095402 | 42 | 169 | 0.0 | 0.0 | 0.00 | 0.00 | 0.00 | 65 | 998.8 |
| 20260505094902 | 42 | 169 | 0.0 | 0.0 | 0.00 | 0.00 | 0.00 | 65 | 998.6 |
| 20260505094401 | 42 | 169 | 0.0 | 0.0 | 0.00 | 0.00 | 0.00 | 64 | 998.6 |
| 20260505094124 | 43 | 169 | 0.0 | 0.0 | 0.00 | 0.00 | 0.00 | 64 | 998.6 |
| 20260505093401 | 43 | 169 | 0.0 | 0.0 | 0.00 | 0.00 | 0.00 | 64 | 998.6 |
| 20260505092901 | 43 | 169 | 0.0 | 0.0 | 0.00 | 0.00 | 0.00 | 62 | 998.4 |
| 20260505092401 | 43 | 169 | 0.0 | 0.0 | 0.00 | 0.00 | 0.00 | 63 | 998.4 |
| 20260505092123 | 44 | 169 | 0.0 | 0.0 | 0.00 | 0.00 | 0.00 | 61 | 998.3 |
| 20260505091401 | 44 | 169 | 0.0 | 0.0 | 0.00 | 0.00 | 0.00 | 61 | 998.2 |
| 20260505090859 | 44 | 169 | 0.0 | 0.0 | 0.00 | 0.00 | 0.00 | 62 | 998.2 |
| 20260505090359 | 44 | 169 | 0.0 | 0.0 | 0.00 | 0.00 | 0.00 | 63 | 998.0 |
| 20260505085859 | 44 | 169 | 0.0 | 0.0 | 0.00 | 0.00 | 0.00 | 61 | 997.9 |
| 20260505085623 | 45 | 169 | 0.0 | 0.0 | 0.00 | 0.00 | 0.00 | 63 | 997.9 |
| 20260505084857 | 45 | 169 | 0.0 | 0.0 | 0.00 | 0.00 | 0.00 | 63 | 997.9 |
| 20260505084357 | 0 | 0.0 | 0.0 | 0.00 | 0.00 | 0.00 | 997.9 | ||
| 20260505083855 | 45 | 169 | 0.0 | 0.0 | 0.00 | 0.00 | 0.00 | 60 | 997.8 |
| 20260505083620 | 45 | 169 | 0.0 | 0.0 | 0.00 | 0.00 | 0.00 | 60 | 997.8 |
| 20260505082853 | 0 | 0.0 | 0.0 | 0.00 | 0.00 | 0.00 | 997.7 | ||
| 20260505082833 | 46 | 169 | 0.0 | 0.0 | 0.00 | 0.00 | 0.00 | 59 | 997.7 |
| 20260505081850 | 46 | 169 | 0.0 | 0.0 | 0.00 | 0.00 | 0.00 | 59 | 997.6 |
| 20260505081347 | 46 | 169 | 0.0 | 0.0 | 0.00 | 0.00 | 0.00 | 57 | 997.5 |
| 20260505080846 | 46 | 169 | 0.0 | 0.0 | 0.00 | 0.00 | 0.00 | 57 | 997.3 |
| 20260505080345 | 46 | 169 | 0.0 | 0.0 | 0.00 | 0.00 | 0.00 | 57 | 997.1 |
| 20260505075845 | 46 | 169 | 0.0 | 0.0 | 0.00 | 0.00 | 0.00 | 57 | 997.1 |
| 20260505075344 | 47 | 169 | 0.0 | 0.0 | 0.00 | 0.00 | 0.00 | 55 | 997.0 |
| 20260505074844 | 47 | 169 | 0.0 | 0.0 | 0.00 | 0.00 | 0.00 | 54 | 996.9 |
| 20260505074331 | 47 | 169 | 0.0 | 0.0 | 0.00 | 0.00 | 0.00 | 54 | 996.9 |
| 20260505073830 | 47 | 169 | 0.0 | 0.0 | 0.00 | 0.00 | 0.00 | 54 | 996.9 |
| 20260505073815 | 47 | 169 | 0.0 | 0.0 | 0.00 | 0.00 | 0.00 | 55 | 996.9 |
| 20260505072831 | 0 | 0.0 | 0.0 | 0.00 | 0.00 | 0.00 | 996.9 | ||
| 20260505072331 | 48 | 169 | 0.0 | 1.0 | 0.00 | 0.00 | 0.00 | 52 | 997.0 |
| 20260505071831 | 48 | 169 | 0.0 | 4.0 | 0.00 | 0.00 | 0.00 | 52 | 996.9 |
| 20260505071331 | 48 | 169 | 2.0 | 4.0 | 0.00 | 0.00 | 0.00 | 53 | 996.9 |
| 20260505070831 | 48 | 169 | 0.0 | 3.0 | 0.00 | 0.00 | 0.00 | 53 | 996.9 |
| 20260505070331 | 48 | 169 | 0.0 | 4.0 | 0.00 | 0.00 | 0.00 | 51 | 996.9 |
| 20260505065832 | 48 | 169 | 2.0 | 4.0 | 0.00 | 0.00 | 0.00 | 52 | 996.9 |
| 20260505065331 | 48 | 168 | 1.0 | 4.0 | 0.00 | 0.00 | 0.00 | 50 | 997.0 |
| 20260505064831 | 49 | 168 | 0.0 | 2.0 | 0.00 | 0.00 | 0.00 | 53 | 997.0 |
| 20260505064549 | 49 | 169 | 1.0 | 2.0 | 0.00 | 0.00 | 0.00 | 52 | 997.0 |
| 20260505063831 | 49 | 169 | 0.0 | 2.0 | 0.00 | 0.00 | 0.00 | 49 | 996.9 |
| 20260505063552 | 49 | 172 | 1.0 | 4.0 | 0.00 | 0.00 | 0.00 | 51 | 997.0 |
| 20260505062831 | 49 | 172 | 2.0 | 4.0 | 0.00 | 0.00 | 0.00 | 50 | 997.1 |
| 20260505062558 | 49 | 173 | 3.0 | 5.0 | 0.00 | 0.00 | 0.00 | 49 | 997.0 |
| 20260505062101 | 49 | 173 | 3.0 | 5.0 | 0.00 | 0.00 | 0.00 | 49 | 997.3 |
| 20260505061332 | 50 | 165 | 1.0 | 4.0 | 0.00 | 0.00 | 0.00 | 49 | 997.1 |
| 20260505060830 | 50 | 166 | 2.0 | 4.0 | 0.00 | 0.00 | 0.00 | 48 | 997.1 |
| 20260505060820 | 50 | 154 | 4.0 | 6.0 | 0.00 | 0.00 | 0.00 | 48 | 997.0 |
| 20260505055805 | 50 | 152 | 3.0 | 6.0 | 0.00 | 0.00 | 0.00 | 48 | 997.0 |
| 20260505055303 | 51 | 204 | 3.0 | 9.0 | 0.00 | 0.00 | 0.00 | 49 | 996.9 |
| 20260505054734 | 51 | 210 | 5.0 | 9.0 | 0.00 | 0.00 | 0.00 | 49 | 996.9 |
| 20260505054502 | 51 | 148 | 6.0 | 6.0 | 0.00 | 0.00 | 0.00 | 48 | 996.8 |
| 20260505053731 | 51 | 180 | 3.0 | 5.0 | 0.00 | 0.00 | 0.00 | 48 | 996.9 |
| 20260505053231 | 51 | 182 | 3.0 | 5.0 | 0.00 | 0.00 | 0.00 | 47 | 996.8 |
| 20260505052731 | 51 | 164 | 4.0 | 9.0 | 0.00 | 0.00 | 0.00 | 48 | 996.8 |
| 20260505052230 | 51 | 169 | 5.0 | 9.0 | 0.00 | 0.00 | 0.00 | 48 | 996.6 |
| 20260505051728 | 52 | 231 | 4.0 | 13.0 | 0.00 | 0.00 | 0.00 | 48 | 996.6 |
| 20260505051207 | 52 | 155 | 6.0 | 13.0 | 0.00 | 0.00 | 0.00 | 46 | 996.5 |
| 20260505050705 | 52 | 221 | 4.0 | 10.0 | 0.00 | 0.00 | 0.00 | 46 | 996.4 |
| 20260505050204 | 52 | 164 | 2.0 | 6.0 | 0.00 | 0.00 | 0.00 | 46 | 996.4 |
| 20260505041705 | 53 | 169 | 3.0 | 6.0 | 0.00 | 0.00 | 0.00 | 45 | 996.1 |
| 20260505041205 | 53 | 164 | 3.0 | 10.0 | 0.00 | 0.00 | 0.00 | 46 | 996.0 |
| 20260505040705 | 54 | 155 | 4.0 | 10.0 | 0.00 | 0.00 | 0.00 | 46 | 996.0 |
| 20260505040204 | 54 | 157 | 2.0 | 6.0 | 0.00 | 0.00 | 0.00 | 46 | 995.8 |
| 20260505035704 | 54 | 166 | 5.0 | 9.0 | 0.00 | 0.00 | 0.00 | 47 | 995.6 |
| 20260505035205 | 54 | 196 | 5.0 | 9.0 | 0.00 | 0.00 | 0.00 | 47 | 995.6 |
| 20260505034705 | 54 | 162 | 3.0 | 9.0 | 0.00 | 0.00 | 0.00 | 46 | 995.5 |
| 20260505034429 | 55 | 162 | 4.0 | 9.0 | 0.00 | 0.00 | 0.00 | 45 | 995.4 |
| 20260505033705 | 55 | 169 | 4.0 | 9.0 | 0.00 | 0.00 | 0.00 | 46 | 995.3 |
| 20260505033204 | 55 | 172 | 3.0 | 6.0 | 0.00 | 0.00 | 0.00 | 47 | 995.2 |
| 20260505032705 | 55 | 166 | 3.0 | 6.0 | 0.00 | 0.00 | 0.00 | 47 | 995.1 |
| 20260505032204 | 56 | 144 | 3.0 | 9.0 | 0.00 | 0.00 | 0.00 | 47 | 995.0 |
| 20260505032149 | 56 | 164 | 3.0 | 9.0 | 0.00 | 0.00 | 0.00 | 45 | 994.9 |
| 20260505031205 | 56 | 164 | 5.0 | 9.0 | 0.00 | 0.00 | 0.00 | 45 | 994.8 |
| 20260505030702 | 56 | 171 | 6.0 | 9.0 | 0.00 | 0.00 | 0.00 | 45 | 994.8 |
| 20260505030434 | 56 | 159 | 5.0 | 9.0 | 0.00 | 0.00 | 0.00 | 45 | 994.6 |
| 20260505025702 | 57 | 142 | 4.0 | 9.0 | 0.00 | 0.00 | 0.00 | 45 | 994.6 |
| 20260505025204 | 57 | 175 | 4.0 | 12.0 | 0.00 | 0.00 | 0.00 | 45 | 994.4 |
| 20260505024703 | 57 | 159 | 5.0 | 12.0 | 0.00 | 0.00 | 0.00 | 45 | 994.3 |
| 20260505024358 | 57 | 145 | 3.0 | 7.0 | 0.00 | 0.00 | 0.00 | 45 | 994.2 |
| 20260505023631 | 58 | 164 | 3.0 | 10.0 | 0.00 | 0.00 | 0.00 | 43 | 993.9 |
| 20260505023358 | 58 | 164 | 3.0 | 10.0 | 0.00 | 0.00 | 0.00 | 44 | 993.8 |
| 20260505022631 | 58 | 159 | 4.0 | 7.0 | 0.00 | 0.00 | 0.00 | 44 | 993.9 |
| 20260505022131 | 58 | 164 | 4.0 | 6.0 | 0.00 | 0.00 | 0.00 | 44 | 993.7 |
| 20260505021854 | 58 | 190 | 4.0 | 7.0 | 0.00 | 0.00 | 0.00 | 44 | 993.5 |
| 20260505021132 | 59 | 175 | 5.0 | 7.0 | 0.00 | 0.00 | 0.00 | 44 | 993.4 |
| 20260505020613 | 59 | 155 | 2.0 | 6.0 | 0.00 | 0.00 | 0.00 | 44 | 993.3 |
| 20260505020117 | 59 | 212 | 2.0 | 9.0 | 0.00 | 0.00 | 0.00 | 43 | 993.1 |
| 20260505015612 | 59 | 169 | 2.0 | 15.0 | 0.00 | 0.00 | 0.00 | 43 | 993.0 |
| 20260505015113 | 59 | 154 | 6.0 | 15.0 | 0.00 | 0.00 | 0.00 | 42 | 992.9 |
| 20260505014612 | 59 | 147 | 2.0 | 6.0 | 0.00 | 0.00 | 0.00 | 44 | 992.8 |
| 20260505014557 | 59 | 147 | 1.0 | 6.0 | 0.00 | 0.00 | 0.00 | 44 | 992.6 |
| 20260505013838 | 60 | 111 | 2.0 | 6.0 | 0.00 | 0.00 | 0.00 | 42 | 992.6 |
| 20260505013112 | 60 | 152 | 1.0 | 6.0 | 0.00 | 0.00 | 0.00 | 42 | 992.5 |
| 20260505012843 | 60 | 127 | 1.0 | 3.0 | 0.00 | 0.00 | 0.00 | 42 | 992.4 |
| 20260505012112 | 60 | 151 | 2.0 | 3.0 | 0.00 | 0.00 | 0.00 | 42 | 992.4 |
| 20260505011611 | 61 | 144 | 4.0 | 6.0 | 0.00 | 0.00 | 0.00 | 40 | 992.3 |
| 20260505011110 | 61 | 144 | 4.0 | 10.0 | 0.00 | 0.00 | 0.00 | 40 | 992.2 |
| 20260505010607 | 61 | 141 | 4.0 | 7.0 | 0.00 | 0.00 | 0.00 | 39 | 992.2 |
| 20260505010106 | 61 | 159 | 4.0 | 9.0 | 0.00 | 0.00 | 0.00 | 39 | 992.0 |
| 20260505005605 | 61 | 128 | 6.0 | 9.0 | 0.00 | 0.00 | 0.00 | 37 | 991.9 |
| 20260505005332 | 62 | 159 | 4.0 | 7.0 | 0.00 | 0.00 | 0.00 | 37 | 991.5 |
| 20260505004824 | 62 | 148 | 7.0 | 9.0 | 0.00 | 0.00 | 0.00 | 39 | 991.6 |
| 20260505004105 | 62 | 168 | 5.0 | 9.0 | 0.00 | 0.00 | 0.00 | 39 | 991.6 |
| 20260505003605 | 62 | 140 | 3.0 | 14.0 | 0.00 | 0.00 | 0.00 | 38 | 991.7 |
| 20260505003102 | 62 | 148 | 7.0 | 14.0 | 0.00 | 0.00 | 0.00 | 38 | 991.7 |
| 20260505002808 | 63 | 147 | 6.0 | 10.0 | 0.00 | 0.00 | 0.00 | 37 | 991.8 |
| 20260505002031 | 63 | 186 | 4.0 | 10.0 | 0.00 | 0.00 | 0.00 | 36 | 991.9 |
| 20260505001531 | 63 | 154 | 4.0 | 13.0 | 0.00 | 0.00 | 0.00 | 38 | 991.9 |
| 20260505001031 | 63 | 186 | 8.0 | 13.0 | 0.00 | 0.00 | 0.00 | 37 | 991.8 |
| 20260505000531 | 63 | 96 | 4.0 | 7.0 | 0.00 | 0.00 | 0.00 | 36 | 991.6 |
| 20260505000253 | 63 | 131 | 4.0 | 7.0 | 0.00 | 0.00 | 0.00 | 36 | 991.6 |
| 20260504235530 | 64 | 189 | 6.0 | 7.0 | 0.00 | 0.00 | 0.00 | 35 | 991.6 |
| 20260504235228 | 64 | 189 | 6.0 | 9.0 | 0.00 | 0.00 | 0.00 | 35 | 991.7 |
| 20260504234503 | 64 | 210 | 4.0 | 7.0 | 0.00 | 0.00 | 0.00 | 34 | 991.7 |
| 20260504234004 | 64 | 210 | 4.0 | 13.0 | 0.00 | 0.00 | 0.00 | 34 | 991.5 |
| 20260504233724 | 64 | 147 | 6.0 | 14.0 | 0.00 | 0.00 | 0.00 | 34 | 991.6 |
| 20260504233225 | 65 | 214 | 7.0 | 14.0 | 0.00 | 0.00 | 0.00 | 35 | 991.6 |
| 20260504232502 | 65 | 120 | 5.0 | 9.0 | 0.00 | 0.00 | 0.00 | 34 | 991.6 |
| 20260504232003 | 65 | 121 | 3.0 | 7.0 | 0.00 | 0.00 | 0.00 | 33 | 991.6 |
| 20260504231503 | 65 | 169 | 3.0 | 7.0 | 0.00 | 0.00 | 0.00 | 35 | 991.4 |
| 20260504231003 | 65 | 172 | 4.0 | 7.0 | 0.00 | 0.00 | 0.00 | 33 | 991.4 |
| 20260504230503 | 65 | 161 | 4.0 | 10.0 | 0.00 | 0.00 | 0.00 | 33 | 991.3 |
| 20260504230002 | 66 | 168 | 4.0 | 10.0 | 0.00 | 0.00 | 0.00 | 35 | 991.0 |
| 20260504225502 | 66 | 145 | 4.0 | 10.0 | 0.00 | 0.00 | 0.00 | 35 | 991.0 |
| 20260504225003 | 66 | 245 | 7.0 | 10.0 | 0.00 | 0.00 | 0.00 | 34 | 991.0 |
| 20260504224716 | 66 | 141 | 4.0 | 12.0 | 0.00 | 0.00 | 0.00 | 32 | 991.0 |
| 20260504224702 | 66 | 152 | 3.0 | 10.0 | 0.00 | 0.00 | 0.00 | 36 | 991.0 |
| 20260504223502 | 67 | 145 | 5.0 | 12.0 | 0.00 | 0.00 | 0.00 | 33 | 990.8 |
| 20260504223003 | 67 | 178 | 2.0 | 7.0 | 0.00 | 0.00 | 0.00 | 34 | 990.8 |
| 20260504222503 | 67 | 138 | 4.0 | 10.0 | 0.00 | 0.00 | 0.00 | 35 | 990.7 |
| 20260504222007 | 67 | 173 | 6.0 | 10.0 | 0.00 | 0.00 | 0.00 | 35 | 990.7 |
| 20260504221503 | 67 | 158 | 6.0 | 14.0 | 0.00 | 0.00 | 0.00 | 36 | 990.6 |
| 20260504221002 | 67 | 158 | 7.0 | 14.0 | 0.00 | 0.00 | 0.00 | 34 | 990.5 |
| 20260504220504 | 68 | 142 | 7.0 | 13.0 | 0.00 | 0.00 | 0.00 | 33 | 990.6 |
| 20260504215949 | 68 | 165 | 7.0 | 16.0 | 0.00 | 0.00 | 0.00 | 33 | 990.5 |
| 20260504215709 | 69 | 159 | 11.0 | 16.0 | 0.00 | 0.00 | 0.00 | 35 | 990.5 |
| 20260504214946 | 69 | 137 | 6.0 | 13.0 | 0.00 | 0.00 | 0.00 | 34 | 990.3 |
| 20260504214447 | 70 | 173 | 7.0 | 13.0 | 0.00 | 0.00 | 0.00 | 32 | 990.0 |
| 20260504213946 | 70 | 166 | 8.0 | 12.0 | 0.00 | 0.00 | 0.00 | 34 | 989.8 |
| 20260504213446 | 71 | 161 | 6.0 | 10.0 | 0.00 | 0.00 | 0.00 | 34 | 989.8 |
| 20260504213205 | 71 | 183 | 7.0 | 14.0 | 0.00 | 0.00 | 0.00 | 32 | 989.7 |
| 20260504212444 | 71 | 159 | 8.0 | 14.0 | 0.00 | 0.00 | 0.00 | 32 | 989.6 |
| 20260504211945 | 71 | 166 | 4.0 | 13.0 | 0.00 | 0.00 | 0.00 | 33 | 989.7 |
| 20260504211709 | 71 | 165 | 7.0 | 13.0 | 0.00 | 0.00 | 0.00 | 34 | 989.7 |
| 20260504210945 | 71 | 179 | 7.0 | 11.0 | 0.00 | 0.00 | 0.00 | 34 | 989.6 |
| 20260504210444 | 71 | 165 | 8.0 | 15.0 | 0.00 | 0.00 | 0.00 | 33 | 989.7 |
| 20260504205944 | 71 | 161 | 9.0 | 15.0 | 0.00 | 0.00 | 0.00 | 34 | 989.5 |
| 20260504205442 | 71 | 175 | 6.0 | 15.0 | 0.00 | 0.00 | 0.00 | 33 | 989.5 |
| 20260504204941 | 71 | 182 | 6.0 | 15.0 | 0.00 | 0.00 | 0.00 | 33 | 989.5 |
| 20260504204441 | 72 | 162 | 7.0 | 15.0 | 0.00 | 0.00 | 0.00 | 34 | 989.5 |
| 20260504203941 | 72 | 164 | 6.0 | 15.0 | 0.00 | 0.00 | 0.00 | 35 | 989.2 |
| 20260504203440 | 72 | 149 | 8.0 | 17.0 | 0.00 | 0.00 | 0.00 | 34 | 989.2 |
| 20260504202940 | 73 | 169 | 13.0 | 17.0 | 0.00 | 0.00 | 0.00 | 35 | 989.0 |
| 20260504202441 | 73 | 179 | 7.0 | 15.0 | 0.00 | 0.00 | 0.00 | 36 | 989.1 |
| 20260504201941 | 73 | 158 | 10.0 | 15.0 | 0.00 | 0.00 | 0.00 | 34 | 989.0 |
| 20260504201441 | 74 | 157 | 8.0 | 16.0 | 0.00 | 0.00 | 0.00 | 36 | 989.0 |
| 20260504201200 | 74 | 190 | 10.0 | 16.0 | 0.00 | 0.00 | 0.00 | 36 | 988.8 |
| 20260504200441 | 76 | 172 | 6.0 | 11.0 | 0.00 | 0.00 | 0.00 | 37 | 988.6 |
| 20260504200200 | 76 | 157 | 8.0 | 11.0 | 0.00 | 0.00 | 0.00 | 37 | 988.6 |
| 20260504195431 | 76 | 164 | 8.0 | 14.0 | 0.00 | 0.00 | 0.00 | 38 | 988.5 |
| 20260504194934 | 76 | 178 | 9.0 | 15.0 | 0.00 | 0.00 | 0.00 | 39 | 988.5 |
| 20260504194431 | 76 | 155 | 7.0 | 15.0 | 0.00 | 0.00 | 0.00 | 39 | 988.4 |
| 20260504193908 | 76 | 176 | 9.0 | 14.0 | 0.00 | 0.00 | 0.00 | 39 | 988.3 |
| 20260504193406 | 76 | 176 | 9.0 | 13.0 | 0.00 | 0.00 | 0.00 | 38 | 988.2 |
| 20260504192904 | 76 | 168 | 6.0 | 14.0 | 0.00 | 0.00 | 0.00 | 38 | 988.4 |
| 20260504192403 | 77 | 109 | 9.0 | 14.0 | 0.00 | 0.00 | 0.00 | 38 | 988.3 |
| 20260504191902 | 77 | 188 | 11.0 | 14.0 | 0.00 | 0.00 | 0.00 | 39 | 988.4 |
| 20260504191625 | 77 | 168 | 9.0 | 14.0 | 0.00 | 0.00 | 0.00 | 40 | 988.3 |
| 20260504190903 | 76 | 172 | 9.0 | 12.0 | 0.00 | 0.00 | 0.00 | 41 | 988.1 |
| 20260504190402 | 76 | 157 | 7.0 | 12.0 | 0.00 | 0.00 | 0.00 | 41 | 988.2 |
| 20260504190113 | 76 | 182 | 9.0 | 18.0 | 0.00 | 0.00 | 0.00 | 41 | 988.4 |
| 20260504185902 | 76 | 166 | 6.0 | 14.0 | 0.00 | 0.00 | 0.00 | 41 | 988.3 |
| 20260504185330 | 76 | 176 | 9.0 | 18.0 | 0.00 | 0.00 | 0.00 | 40 | 988.5 |
| 20260504184337 | 76 | 169 | 9.0 | 14.0 | 0.00 | 0.00 | 0.00 | 39 | 988.3 |
| 20260504183839 | 77 | 221 | 9.0 | 14.0 | 0.00 | 0.00 | 0.00 | 40 | 988.3 |
| 20260504183335 | 76 | 203 | 11.0 | 15.0 | 0.00 | 0.00 | 0.00 | 39 | 988.3 |
| 20260504182837 | 76 | 203 | 11.0 | 16.0 | 0.00 | 0.00 | 0.00 | 39 | 988.3 |
| 20260504182335 | 77 | 152 | 11.0 | 17.0 | 0.00 | 0.00 | 0.00 | 37 | 988.2 |
| 20260504181834 | 77 | 164 | 11.0 | 17.0 | 0.00 | 0.00 | 0.00 | 37 | 988.2 |
| 20260504181330 | 77 | 168 | 7.0 | 13.0 | 0.00 | 0.00 | 0.00 | 38 | 988.1 |
| 20260504181051 | 77 | 168 | 7.0 | 16.0 | 0.00 | 0.00 | 0.00 | 38 | 987.9 |
| 20260504180330 | 77 | 182 | 8.0 | 16.0 | 0.00 | 0.00 | 0.00 | 37 | 988.0 |
| 20260504175830 | 78 | 173 | 9.0 | 13.0 | 0.00 | 0.00 | 0.00 | 40 | 987.9 |
| 20260504175330 | 78 | 161 | 4.0 | 11.0 | 0.00 | 0.00 | 0.00 | 38 | 987.8 |
| 20260504174829 | 78 | 172 | 4.0 | 12.0 | 0.00 | 0.00 | 0.00 | 37 | 988.0 |
| 20260504174330 | 78 | 186 | 6.0 | 16.0 | 0.00 | 0.00 | 0.00 | 36 | 988.0 |
| 20260504173830 | 78 | 185 | 10.0 | 16.0 | 0.00 | 0.00 | 0.00 | 35 | 988.1 |
| 20260504173326 | 79 | 207 | 11.0 | 16.0 | 0.00 | 0.00 | 0.00 | 36 | 988.0 |